User: anonymous
Location: Irma
(52.9170°N, 111.2330°W)
Time: 07:10:29
(UTC-06:00)
Language:

deb Chang Zheng 4 - Orbit

View from above orbital plane
View from above orbital plane
View from above satellite
View from above satellite

Ground track
Ground track

The orbit data is extracted from the following two-line orbital elements,

1 20847U 90081K   14206.48636250  .00002694  00000-0  49221-3 0  1316
2 20847 098.5712 012.0744 0023462 174.7161 250.9749 14.66651364249819
Epoch (UTC): 25 July 2014 11:40:21
Eccentricity: 0.0023462
inclination: 98.5712°
perigee height: 655 km
apogee height: 688 km
right ascension of ascending node: 12.0744°
argument of perigee: 174.7161°
revolutions per day: 14.66651364
mean anomaly at epoch: 250.9749°
orbit number at epoch: 24981

The dashed part of the orbit path shows where the satellite is in the earth's shadow,  

DLR